User: anonymous   Login
Location: Cimarron National Grasslands
(37.1250°N, 101.7500°W)
Time: 02:35:58
(UTC-05:00)
Language:

Ariane Rocket - Orbit

View from above orbital plane
View from above orbital plane
View from above satellite
View from above satellite

Ground track
Ground track

The orbit data is extracted from the following two-line orbital elements,

1 23561U 95021B   16178.09769921  .00000048  00000-0  31170-4 0  9998
2 23561  98.7703 165.5000 0006002 226.3128 176.0340 14.37746974110085
Epoch (UTC): 26 June 2016 02:20:41
Eccentricity: 0.0006002
inclination: 98.7703°
perigee height: 761 km
apogee height: 770 km
right ascension of ascending node: 165.5000°
argument of perigee: 226.3128°
revolutions per day: 14.37746974
mean anomaly at epoch: 176.0340°
orbit number at epoch: 11008

The dashed part of the orbit path shows where the satellite is in the earth's shadow,  

DLR